Theta_e
322 323 325 325 323 324 324 324 324 323 323 325 323 321 321 320 321 319 321 322 322 322 320 319 321 321 321 320 320 322 330 327 329 333 334 328 325 330 328 331 331 329 329 327
324 326 324 323 323 325 325 326 326 325 324 325 326 327 324 323 321 318 321 321 321 320 319 318 317 318 318 318 318 317 316 319 320 321 320 318 320 321 326 325 329 323 320 321
327 326 325 325 325 326 326 327 326 326 325 325 326 325 324 324 323 320 322 321 320 319 318 317 315 315 316 316 315 316 316 315 313 313 312 312 311 312 312 314 315 315 317 323
325 325 326 326 327 326 328 325 326 326 326 329 324 331 324 323 323 321 321 320 318 317 316 315 313 314 315 315 315 314 314 314 312 311 311 312 314 314 314 315 315 314 313 313
326 325 326 326 327 326 327 325 326 327 326 326 326 326 324 323 323 320 320 319 317 315 314 313 313 314 314 313 312 313 310 310 310 309 309 309 309 309 309 310 312 312 315 315
324 322 324 326 326 326 326 326 326 325 325 331 327 327 325 321 322 320 319 317 315 313 312 312 313 313 312 311 310 310 309 307 307 306 306 306 307 309 309 309 309 310 311 312
325 325 324 324 325 325 326 327 332 331 331 333 328 328 327 323 319 320 318 315 313 313 310 311 310 310 310 309 307 306 306 306 306 306 306 306 307 310 310 311 312 313 313 313
328 328 325 324 326 327 327 328 333 335 332 331 326 328 325 319 319 319 316 314 313 309 310 308 307 307 307 306 306 306 305 306 305 304 305 305 305 308 310 307 306 306 307 307
327 326 324 325 325 326 327 330 327 328 327 326 325 323 320 319 319 317 315 315 309 306 305 304 303 304 305 305 305 305 304 303 303 304 304 303 304 304 304 304 304 305 306 305
325 330 326 325 324 324 326 324 329 332 337 336 326 325 323 320 319 317 317 313 307 305 304 303 302 303 304 304 303 303 302 302 301 301 302 301 301 302 302 302 302 302 302 302
324 326 328 326 326 327 324 327 328 328 322 325 327 325 319 320 319 318 316 309 304 302 302 301 300 302 303 303 302 301 301 300 300 300 300 300 300 300 300 301 301 300 301 301
324 326 328 328 324 324 325 326 325 330 325 319 318 322 316 318 318 317 310 305 302 301 300 300 300 300 301 301 300 300 299 299 300 300 300 300 299 299 299 299 299 299 300 301
325 326 327 329 327 323 328 326 324 320 318 324 330 325 316 316 314 311 307 303 302 300 299 298 299 300 300 300 299 299 300 300 300 300 300 300 300 300 300 300 300 300 300 300
324 325 328 330 326 326 326 326 325 326 325 323 321 322 316 315 314 310 304 302 301 299 298 297 296 296 298 299 300 300 300 300 300 300 300 300 300 300 300 300 300 300 300 301
324 327 328 325 324 325 327 324 323 326 326 326 324 322 317 314 312 306 303 301 300 298 297 296 295 296 298 299 300 299 299 300 299 299 299 299 299 299 299 298 298 297 297 298
318 320 322 325 324 323 325 323 323 321 319 321 320 322 317 314 306 303 302 300 298 297 296 298 297 298 299 299 299 299 299 298 298 298 298 298 298 297 297 296 296 297 298 298
317 318 321 328 324 324 326 321 323 323 320 319 320 319 318 311 305 303 299 299 297 298 298 298 297 297 298 298 298 297 297 297 297 298 297 296 296 296 295 295 296 297 297 297
315 316 318 319 321 328 322 319 320 322 322 320 316 317 317 311 304 300 298 298 298 298 297 297 296 296 297 296 296 296 296 296 296 296 295 295 294 294 295 296 295 295 296 296
314 314 316 321 323 319 318 307 320 322 321 320 314 316 318 308 299 299 299 299 298 297 295 295 295 296 295 295 295 295 295 294 294 293 293 293 293 293 293 293 294 295 294 295
315 314 319 316 322 325 312 307 308 311 317 309 307 314 303 305 305 299 297 296 295 294 294 294 295 294 294 294 294 294 294 293 293 292 292 293 293 293 293 293 293 293 293 294
313 312 317 316 317 313 310 305 307 313 312 303 304 305 302 306 301 299 296 295 294 294 294 294 294 293 293 292 292 293 293 292 292 292 291 291 292 292 292 292 292 292 293 294
315 314 316 313 315 317 308 304 309 304 299 299 301 301 301 300 299 297 295 295 294 294 293 293 293 292 292 292 292 292 291 291 291 291 290 290 290 291 291 291 292 293 293 293
316 312 314 313 313 307 301 302 300 299 298 299 300 300 300 298 296 295 294 293 293 292 292 292 292 292 291 290 290 290 290 290 290 290 289 288 288 290 290 290 291 291 292 291
311 309 311 311 309 302 301 300 299 299 298 299 299 299 297 296 295 294 293 292 292 292 291 291 291 290 290 290 290 290 290 289 288 287 287 287 288 288 289 290 290 291 291 291
307 309 307 307 305 302 301 300 298 299 299 299 298 296 295 295 294 293 292 291 290 290 290 290 290 290 289 289 289 288 287 286 287 286 287 287 288 288 288 289 288 289 290 290
304 306 309 310 304 303 300 298 299 299 299 298 296 295 295 294 293 292 291 290 289 289 289 289 289 289 289 288 287 286 286 285 286 286 286 287 287 288 288 288 288 288 289 289
Wind_Speed
5 5 12 26 10 4 4 4 6 8 9 9 11 9 12 8 5 8 15 14 13 14 11 26 29 27 24 24 25 24 24 19 17 14 11 7 6 4 7 7 8 12 13 15
3 13 25 5 7 11 8 10 15 13 13 9 8 7 8 4 7 12 18 14 16 15 13 17 27 26 24 23 22 22 20 16 14 12 10 8 8 7 7 10 9 12 16 16
18 12 12 9 10 11 14 15 14 10 13 8 1 6 7 6 4 10 18 16 15 18 17 13 17 25 23 22 20 18 16 15 14 12 10 10 10 12 14 15 17 18 18 14
12 17 12 13 15 15 14 14 13 8 5 7 7 7 7 5 6 7 16 18 18 18 16 12 15 20 21 18 17 16 15 14 13 13 13 12 11 14 16 17 18 20 21 21
10 13 20 20 21 17 12 13 10 9 4 1 4 3 7 7 8 8 15 18 17 16 15 14 15 23 22 19 17 15 13 12 12 11 11 12 13 14 16 18 20 21 20 18
15 8 14 18 20 16 13 4 0 2 2 10 8 7 4 6 9 5 9 14 16 15 13 13 20 27 22 18 17 15 12 10 9 10 12 14 15 15 16 16 18 19 20 19
17 20 11 3 6 6 8 7 4 3 4 10 7 8 11 6 8 15 20 17 17 15 11 12 10 15 18 18 17 13 10 10 10 11 12 13 14 12 11 12 13 14 16 17
16 10 22 10 16 12 11 16 7 7 5 6 8 6 6 7 8 16 17 18 13 11 12 11 12 20 21 18 15 12 9 8 8 8 9 13 13 11 9 10 14 15 13 13
10 15 4 18 15 17 6 14 13 5 2 2 4 4 4 6 13 19 19 18 14 14 13 11 14 22 19 16 11 9 8 9 10 10 12 14 13 14 15 16 16 18 13 14
6 1 9 14 20 16 16 6 7 2 6 7 5 5 5 8 14 17 20 17 15 12 13 11 12 18 16 15 14 11 9 5 5 7 8 11 13 14 15 14 14 17 20 20
17 4 4 9 13 22 6 13 7 8 6 5 2 6 7 19 22 23 18 17 17 15 12 10 11 18 19 16 13 10 5 2 6 10 12 14 17 18 18 19 21 24 26 27
21 13 14 14 3 19 24 14 9 7 5 4 4 5 4 15 17 17 17 16 12 12 10 9 13 16 16 13 8 4 3 6 9 11 14 15 18 21 23 23 24 25 27 28
14 8 2 11 16 4 24 19 14 6 4 9 10 6 4 14 13 14 18 13 11 10 9 8 9 12 11 8 7 9 11 10 13 16 18 20 22 24 25 26 29 30 32 32
19 7 17 14 6 8 14 18 19 20 10 6 7 4 5 11 16 14 14 13 11 10 10 7 7 9 13 13 10 10 11 13 15 16 19 21 22 23 22 20 20 23 24 25
13 16 12 8 1 14 18 12 18 22 22 18 13 10 14 15 15 16 16 12 11 11 10 8 8 7 12 11 10 9 9 10 11 13 15 17 20 21 22 26 28 30 31 30
1 2 4 8 5 9 2 6 14 6 5 12 7 13 18 16 13 14 16 14 14 11 10 11 8 10 10 7 6 7 10 11 12 13 16 14 17 23 25 28 29 29 26 29
4 5 3 10 4 3 10 9 8 4 5 8 11 6 14 15 19 18 12 15 12 13 11 9 8 9 9 11 12 12 10 11 13 13 13 19 22 23 25 26 25 25 29 31
5 5 2 3 5 6 2 4 7 11 9 9 4 12 22 19 9 10 10 14 13 11 10 8 10 13 16 14 12 9 10 12 13 15 17 19 22 22 22 21 24 27 27 29
5 5 3 4 6 6 4 4 7 8 10 15 9 10 14 17 12 5 10 11 12 8 8 12 16 19 15 12 10 10 11 13 16 17 19 21 21 21 24 25 26 27 28 26
7 6 3 3 5 9 0 4 7 7 9 5 13 18 20 17 10 4 7 10 10 15 16 17 18 15 15 12 11 13 13 14 16 18 19 19 20 21 21 23 25 23 25 26
6 3 6 3 3 6 6 3 5 8 4 2 19 22 19 12 4 12 11 10 14 16 19 19 17 16 12 12 14 12 7 10 13 14 15 18 19 20 21 23 23 24 24 26
7 7 3 3 2 9 8 3 12 5 4 10 18 17 15 18 20 16 15 13 14 16 16 17 16 13 12 11 10 8 8 11 15 15 16 18 21 21 20 21 24 24 22 21
4 5 7 8 6 2 3 3 5 8 16 12 23 21 24 21 19 17 14 14 12 16 15 14 14 12 9 7 8 7 9 11 13 16 18 19 20 20 22 22 23 23 20 18
3 3 4 3 5 4 5 6 6 13 16 15 18 20 20 20 16 14 13 11 10 14 14 14 13 10 6 6 6 6 7 10 14 15 17 17 18 20 20 23 20 20 19 19
5 11 7 3 3 6 5 11 13 13 16 17 15 17 17 16 14 13 11 10 12 14 14 12 11 7 4 2 2 5 7 9 11 14 15 17 18 18 21 20 20 21 21 21
5 7 8 7 8 6 11 11 16 18 16 16 18 13 11 13 12 12 10 13 14 14 12 10 8 6 5 2 2 4 6 8 9 13 16 17 19 20 19 20 21 24 22 24
Wind_Direction
184 139 220 227 202 246 206 226 235 263 281 310 278 247 230 210 159 127 153 153 144 135 132 115 113 112 109 104 103 101 109 111 121 117 119 104 59 40 18 2 345 334 328 324
161 208 229 94 200 230 231 241 257 280 272 255 245 251 258 231 205 164 159 158 149 139 137 127 116 115 109 107 105 100 97 95 89 84 68 50 40 19 360 354 351 342 330 328
208 209 227 208 226 226 235 230 245 240 278 259 212 301 287 289 213 132 171 161 145 143 139 134 122 119 116 110 103 97 91 83 75 63 51 29 14 3 356 345 342 341 345 333
234 229 239 213 229 215 237 231 243 247 256 245 188 254 254 249 257 154 162 160 155 152 142 138 133 131 124 116 111 101 95 90 68 52 39 23 2 343 340 332 328 329 331 327
205 199 214 227 217 216 227 240 226 247 216 192 229 204 251 187 231 169 173 164 159 152 144 144 145 139 133 128 118 115 101 79 70 52 35 19 0 348 342 341 340 340 338 333
210 236 207 214 227 223 220 213 264 9 146 248 232 198 235 200 200 145 161 164 154 152 148 152 148 144 141 131 119 115 102 73 43 18 9 2 351 340 334 334 332 334 330 333
227 234 240 205 216 217 194 181 232 267 228 244 209 239 235 235 189 170 168 162 156 157 144 141 142 131 134 125 114 104 84 59 33 16 4 351 340 325 322 331 346 348 343 339
213 229 219 201 205 211 214 200 161 202 218 248 200 230 233 263 204 161 154 146 133 123 134 133 132 126 125 123 119 107 87 70 34 5 344 335 339 337 343 348 341 340 339 334
195 230 211 210 219 201 206 214 179 212 237 63 233 286 359 54 130 141 142 137 133 128 128 129 128 133 133 129 116 99 80 52 32 6 339 332 334 333 330 331 332 332 330 326
209 245 202 208 213 224 207 170 170 116 198 235 255 232 202 143 142 148 151 142 137 135 133 139 140 135 131 126 118 103 88 68 15 2 358 345 334 330 326 324 321 319 315 312
215 131 279 203 200 206 189 199 188 164 164 190 203 248 185 170 164 162 159 146 146 147 144 140 137 130 125 123 119 118 112 24 340 331 330 324 321 318 323 319 315 315 310 306
203 217 227 224 240 211 217 205 162 195 225 220 154 257 306 168 170 160 148 148 146 140 142 144 139 126 122 121 115 95 23 358 358 350 343 339 331 326 322 319 317 317 317 311
173 220 170 230 256 212 213 204 191 117 114 203 211 237 46 143 148 155 147 151 147 138 130 121 110 118 125 112 73 60 48 21 358 345 335 328 325 323 322 323 320 316 314 313
175 184 206 216 239 181 201 208 197 195 215 186 208 160 166 175 161 149 150 154 151 145 133 123 119 103 101 97 75 57 38 22 7 354 345 340 340 343 342 346 351 351 347 347
191 215 199 199 321 200 203 200 197 206 214 212 213 201 187 184 172 164 158 154 139 133 134 129 116 120 104 87 72 39 22 22 16 11 7 356 346 344 340 337 335 332 329 330
23 190 116 184 131 55 15 219 219 183 167 215 174 224 175 177 138 155 162 150 145 144 122 124 122 108 98 81 70 48 41 26 16 2 352 360 346 338 337 334 330 329 328 326
102 120 126 200 119 42 278 200 191 178 172 173 198 192 173 160 160 169 155 150 141 130 130 123 119 114 94 79 78 62 39 17 10 15 6 349 345 339 332 325 324 322 321 323
108 94 56 143 108 205 303 183 178 209 222 206 201 209 166 162 132 128 134 128 130 132 128 118 113 100 92 78 65 50 40 34 20 4 358 347 339 330 330 328 326 321 322 319
91 113 143 171 194 318 212 187 160 167 238 225 191 172 159 131 100 81 132 132 129 123 114 111 103 104 90 76 69 52 35 24 13 3 348 343 337 329 328 322 322 325 323 325
104 105 172 151 183 216 45 220 149 96 253 200 149 151 147 152 164 160 143 125 112 108 112 110 110 99 84 66 47 34 31 18 4 354 339 332 330 322 318 318 317 313 319 318
131 132 196 155 215 282 240 155 132 166 213 116 160 155 155 168 145 142 130 112 114 116 118 120 108 96 78 48 32 26 28 4 348 332 325 322 327 328 325 317 325 325 318 317
154 146 160 134 155 260 188 171 181 165 52 119 146 149 121 115 123 130 131 136 134 132 131 120 101 83 64 49 41 28 353 338 332 325 321 323 328 331 323 323 327 327 320 309
179 164 172 188 203 217 187 166 114 146 135 131 122 130 131 134 140 143 142 138 136 131 120 111 101 93 79 53 22 8 346 340 333 328 327 323 322 324 333 333 325 319 318 314
194 152 159 109 213 205 121 96 108 141 128 127 123 129 134 137 140 135 133 135 132 133 130 119 109 107 94 46 34 7 351 345 341 337 331 331 327 327 331 331 325 316 318 319
180 155 153 248 233 91 143 145 138 128 125 122 124 131 134 132 137 135 135 138 139 132 121 115 113 107 88 65 20 7 3 353 347 344 345 341 337 337 332 328 321 318 321 322
187 165 181 208 184 154 174 154 147 137 138 135 129 129 135 134 137 135 136 141 136 130 130 127 131 141 164 199 355 360 352 351 346 341 335 335 341 330 329 327 319 325 321 321